Visibility
15.0 15.0 15.0 15.0 15.0 15.0 15.0 15.0 15.0 15.0 15.0 15.0 15.0 15.0 15.0 15.0 15.0 15.0 15.0 15.0 15.0 15.0 15.0 15.0 15.0 15.0 15.0 15.0 15.0 15.0 15.0 15.0 15.0 15.0 15.0 15.0 15.0 15.0 15.0 15.0 15.0 15.0 15.0 15.0
15.0 15.0 15.0 15.0 15.0 15.0 15.0 15.0 15.0 15.0 15.0 15.0 15.0 15.0 15.0 15.0 15.0 15.0 15.0 15.0 15.0 15.0 15.0 15.0 15.0 15.0 15.0 15.0 15.0 15.0 15.0 15.0 15.0 15.0 15.0 15.0 15.0 15.0 15.0 15.0 15.0 15.0 15.0 15.0
15.0 15.0 15.0 15.0 15.0 15.0 15.0 15.0 15.0 15.0 15.0 15.0 15.0 15.0 15.0 15.0 15.0 15.0 15.0 15.0 15.0 15.0 15.0 15.0 15.0 15.0 15.0 15.0 15.0 15.0 15.0 15.0 15.0 15.0 15.0 15.0 15.0 15.0 15.0 15.0 15.0 15.0 15.0 15.0
15.0 15.0 15.0 15.0 15.0 15.0 15.0 15.0 15.0 15.0 15.0 15.0 15.0 15.0 15.0 15.0 15.0 15.0 15.0 15.0 15.0 15.0 15.0 15.0 15.0 15.0 15.0 15.0 15.0 15.0 15.0 15.0 15.0 15.0 15.0 15.0 15.0 15.0 15.0 15.0 15.0 15.0 15.0 15.0
15.0 15.0 15.0 15.0 15.0 15.0 15.0 15.0 15.0 15.0 15.0 15.0 15.0 15.0 15.0 15.0 15.0 14.8 15.0 15.0 15.0 15.0 15.0 15.0 7.0 9.3 15.0 15.0 13.5 15.0 15.0 15.0 15.0 15.0 15.0 15.0 15.0 15.0 15.0 15.0 15.0 15.0 15.0 15.0
15.0 15.0 15.0 15.0 15.0 15.0 15.0 15.0 15.0 15.0 15.0 0.8 15.0 15.0 15.0 0.1 0.0 15.0 14.9 15.0 15.0 15.0 15.0 15.0 13.0 15.0 15.0 13.8 15.0 15.0 15.0 15.0 15.0 15.0 15.0 15.0 15.0 15.0 15.0 15.0 15.0 15.0 15.0 15.0
15.0 15.0 15.0 15.0 15.0 15.0 15.0 15.0 0.2 1.7 7.3 4.4 15.0 15.0 3.8 0.1 0.0 0.1 0.1 0.0 0.1 5.4 6.3 2.8 10.3 15.0 12.4 10.7 10.5 15.0 15.0 15.0 15.0 15.0 15.0 15.0 15.0 15.0 15.0 15.0 15.0 15.0 15.0 15.0
15.0 15.0 15.0 15.0 15.0 15.0 15.0 15.0 13.2 4.8 15.0 15.0 15.0 15.0 0.1 0.0 13.1 13.1 0.2 0.1 0.0 0.0 0.0 0.1 0.3 10.7 15.0 15.0 14.8 15.0 15.0 15.0 15.0 15.0 15.0 15.0 15.0 15.0 15.0 15.0 15.0 15.0 15.0 15.0
15.0 15.0 15.0 15.0 15.0 15.0 15.0 15.0 15.0 5.8 12.2 0.8 15.0 0.6 0.0 0.1 8.1 12.9 0.1 1.1 0.1 0.1 0.0 0.0 0.1 3.1 15.0 15.0 15.0 15.0 15.0 15.0 15.0 15.0 15.0 15.0 15.0 15.0 15.0 15.0 15.0 15.0 15.0 15.0
15.0 15.0 15.0 15.0 15.0 15.0 15.0 15.0 12.7 0.9 5.9 3.7 15.0 8.7 7.2 0.1 0.0 0.0 0.0 0.0 0.0 0.1 0.4 12.7 0.2 3.9 6.6 15.0 15.0 15.0 15.0 15.0 15.0 15.0 15.0 15.0 15.0 15.0 15.0 15.0 15.0 15.0 15.0 15.0
15.0 13.0 15.0 15.0 15.0 15.0 15.0 15.0 15.0 15.0 15.0 12.9 12.4 15.0 15.0 0.1 0.1 0.0 0.0 0.0 0.1 9.9 11.8 6.7 5.8 4.4 8.4 7.2 7.8 8.9 10.0 15.0 15.0 15.0 15.0 15.0 15.0 15.0 15.0 15.0 15.0 15.0 15.0 15.0
15.0 7.5 15.0 15.0 15.0 14.8 15.0 15.0 15.0 14.5 5.8 13.8 15.0 12.0 15.0 11.4 15.0 15.0 15.0 15.0 15.0 15.0 15.0 14.9 14.9 13.4 15.0 15.0 15.0 15.0 15.0 15.0 15.0 15.0 15.0 15.0 15.0 15.0 15.0 15.0 15.0 15.0 15.0 15.0
15.0 8.2 1.1 12.6 14.2 12.2 0.1 15.0 15.0 15.0 15.0 13.5 7.7 13.0 15.0 15.0 15.0 15.0 15.0 15.0 15.0 15.0 15.0 15.0 15.0 15.0 15.0 15.0 15.0 15.0 15.0 15.0 15.0 15.0 15.0 15.0 14.0 15.0 15.0 15.0 14.9 15.0 15.0 15.0
13.7 11.4 15.0 9.6 15.0 15.0 15.0 10.6 15.0 15.0 8.3 15.0 11.9 5.4 3.0 2.2 15.0 15.0 15.0 15.0 15.0 15.0 15.0 15.0 15.0 15.0 15.0 15.0 15.0 15.0 15.0 15.0 15.0 15.0 14.2 15.0 15.0 12.0 15.0 15.0 15.0 15.0 15.0 15.0
11.5 10.0 0.3 15.0 13.8 15.0 9.4 5.1 5.0 13.0 15.0 12.2 15.0 15.0 15.0 12.3 15.0 15.0 15.0 15.0 15.0 15.0 15.0 15.0 15.0 15.0 15.0 15.0 15.0 15.0 15.0 15.0 15.0 15.0 15.0 10.0 13.2 15.0 15.0 15.0 15.0 15.0 15.0 15.0
15.0 15.0 15.0 14.8 10.2 15.0 15.0 12.7 15.0 15.0 15.0 15.0 15.0 5.6 15.0 15.0 15.0 14.8 15.0 15.0 15.0 15.0 15.0 15.0 15.0 15.0 8.4 3.8 1.6 6.1 0.8 0.7 7.3 7.6 5.8 15.0 15.0 15.0 15.0 13.1 15.0 15.0 15.0 15.0
15.0 14.4 0.5 2.0 15.0 0.1 0.0 15.0 15.0 15.0 15.0 15.0 15.0 15.0 15.0 10.8 14.0 13.8 5.7 15.0 15.0 14.7 12.3 15.0 15.0 6.9 3.0 1.3 0.3 0.2 0.2 15.0 15.0 15.0 15.0 15.0 15.0 15.0 15.0 15.0 15.0 14.8 9.6 15.0
15.0 15.0 0.1 0.1 5.9 0.1 15.0 15.0 13.5 12.0 15.0 15.0 15.0 15.0 15.0 15.0 9.2 3.0 15.0 15.0 15.0 15.0 14.3 15.0 7.0 15.0 6.0 6.3 0.1 0.4 0.7 1.7 15.0 15.0 15.0 15.0 15.0 15.0 15.0 15.0 15.0 15.0 15.0 10.0
15.0 15.0 0.3 0.1 2.1 15.0 15.0 15.0 15.0 15.0 15.0 15.0 15.0 10.6 6.6 2.5 14.3 1.1 15.0 15.0 15.0 15.0 0.7 0.3 1.6 1.3 6.5 2.4 0.9 0.1 0.2 0.1 14.5 15.0 15.0 15.0 15.0 15.0 15.0 15.0 15.0 15.0 15.0 15.0
15.0 15.0 3.4 0.1 0.9 1.2 15.0 15.0 15.0 15.0 15.0 15.0 15.0 15.0 5.2 15.0 8.5 2.2 15.0 15.0 4.8 4.8 1.2 1.6 2.1 4.5 15.0 5.4 9.8 0.3 0.4 4.6 1.7 15.0 15.0 15.0 15.0 15.0 15.0 15.0 15.0 15.0 15.0 15.0
0.1 0.1 1.3 15.0 7.3 15.0 15.0 15.0 15.0 15.0 15.0 15.0 15.0 15.0 15.0 12.4 12.0 12.7 14.8 3.6 10.5 1.3 6.1 7.2 11.1 2.8 0.3 1.7 15.0 15.0 15.0 15.0 15.0 15.0 15.0 15.0 15.0 15.0 15.0 15.0 15.0 15.0 15.0 15.0
10.1 6.7 4.1 15.0 5.6 15.0 15.0 15.0 15.0 15.0 7.9 15.0 12.1 15.0 6.9 4.4 2.3 11.4 5.2 0.4 0.2 1.9 3.0 4.0 1.3 0.2 10.0 15.0 15.0 15.0 15.0 15.0 15.0 15.0 15.0 15.0 15.0 15.0 15.0 15.0 15.0 15.0 15.0 15.0
15.0 15.0 15.0 15.0 15.0 15.0 15.0 13.7 15.0 15.0 14.9 15.0 11.7 13.5 15.0 4.8 2.1 0.9 0.2 0.3 1.6 0.4 1.6 15.0 15.0 15.0 15.0 15.0 15.0 15.0 15.0 15.0 15.0 15.0 15.0 15.0 15.0 15.0 12.9 15.0 15.0 15.0 15.0 11.4
15.0 15.0 8.5 15.0 10.7 9.9 15.0 15.0 15.0 15.0 15.0 15.0 15.0 7.4 15.0 4.1 2.0 0.4 0.9 0.5 1.1 3.4 15.0 15.0 15.0 15.0 15.0 15.0 15.0 15.0 15.0 15.0 15.0 15.0 15.0 15.0 15.0 15.0 3.6 13.7 15.0 15.0 15.0 14.8
15.0 15.0 15.0 2.7 4.9 9.9 10.4 15.0 15.0 15.0 15.0 15.0 15.0 15.0 15.0 13.0 2.8 4.8 0.6 0.9 3.2 4.5 15.0 15.0 15.0 15.0 15.0 15.0 15.0 15.0 15.0 15.0 15.0 15.0 15.0 15.0 15.0 15.0 15.0 7.9 15.0 15.0 15.0 15.0
15.0 15.0 15.0 12.8 15.0 15.0 15.0 15.0 15.0 15.0 15.0 15.0 15.0 9.3 15.0 15.0 3.6 10.3 3.0 8.6 13.2 15.0 15.0 15.0 15.0 15.0 15.0 15.0 15.0 15.0 15.0 15.0 15.0 15.0 15.0 15.0 15.0 15.0 15.0 15.0 15.0 15.0 15.0 15.0